Location: Unspecified
(41.5000°N, 0.0000°E)
Time: 08:27:14
(UTC+00:00)

Courier 1B Rocket - Pass Details

Date: 25 June 2019
Orbit: 920 x 1202 km, 28.2° (Epoch: 21 July)

Event Time Altitude Azimuth Distance (km) Brightness Sun altitude
Rises 06:20:21 0° 254° (WSW) 3,784 7.5 18.4°
Reaches altitude 10° 06:23:46 10° 240° (WSW) 2,778 6.9 19.1°
Maximum altitude 06:28:38 22° 193° (SSW) 2,000 6.5 19.9°
Drops below altitude 10° 06:33:20 10° 145° (SE) 2,654 7.7 20.8°
Sets 06:36:31 0° 130° (SE) 3,570 8.5 21.4°
